Lapse_Rate
5.6 5.5 5.3 5.3 5.3 5.5 5.4 5.3 5.5 5.5 5.4 5.4 5.4 5.3 5.3 5.4 5.3 5.1 5.1 5.0 5.1 5.2 5.7 5.6 5.9 6.0 6.0 6.0 6.0 6.0 6.0 6.0 6.0 6.0 5.9 5.9 5.9 6.0 6.0 5.9 5.9 6.1 6.0
5.7 5.6 5.5 5.4 5.3 5.1 5.3 5.5 5.5 5.4 5.2 5.1 5.4 5.4 5.4 5.4 5.5 5.3 5.2 5.2 5.0 5.0 5.5 5.6 5.8 6.0 6.0 5.9 6.0 6.0 6.0 5.9 5.9 5.9 5.9 6.0 6.0 5.8 5.8 5.8 5.9 6.2 6.2
5.6 5.7 5.7 5.6 5.5 5.1 5.3 5.3 5.4 5.5 5.5 5.3 5.3 5.5 5.5 5.5 5.4 5.5 5.4 5.3 5.1 5.2 5.3 5.6 5.9 6.0 5.9 6.0 6.0 5.9 5.9 5.9 5.8 5.7 5.8 5.9 6.0 5.9 5.8 5.9 5.9 6.0 6.1
5.5 5.5 5.6 5.6 5.5 5.1 5.3 5.5 5.4 5.5 5.6 5.4 5.6 5.8 5.7 5.6 5.5 5.6 5.7 5.5 5.5 5.4 5.5 5.7 5.9 6.1 6.1 5.9 6.0 6.0 5.9 5.9 5.8 5.8 5.8 5.8 5.9 5.9 5.9 5.9 5.9 5.9 5.9
5.5 5.7 5.6 5.5 5.5 5.3 5.2 5.4 5.5 5.5 5.7 5.6 5.7 5.8 5.8 5.8 5.7 5.7 5.7 5.7 5.7 5.7 5.8 6.0 6.0 6.1 6.2 6.0 5.9 6.1 6.1 6.0 5.9 5.8 5.7 5.8 5.9 5.9 6.0 5.9 5.9 5.9 5.9
5.5 5.7 5.7 5.5 5.5 5.4 5.1 5.2 5.5 5.4 5.4 5.5 5.7 5.7 5.7 5.7 5.8 5.9 5.8 5.7 5.6 5.7 5.8 6.0 6.0 6.1 6.3 6.2 5.9 6.0 6.2 6.2 6.0 5.9 5.7 5.7 5.7 5.8 5.8 5.9 5.8 5.8 5.8
5.5 5.6 5.6 5.3 5.4 5.3 5.0 5.2 5.3 5.4 5.4 5.5 5.7 5.6 5.7 5.8 5.8 5.8 6.0 5.9 5.6 5.6 5.7 5.7 5.8 5.9 6.1 6.3 6.2 6.2 6.3 6.3 6.2 6.1 5.9 5.7 5.8 5.8 5.8 5.8 5.8 5.8 5.8
5.5 5.5 5.3 5.2 5.2 5.2 5.3 5.3 5.6 5.6 5.3 5.5 5.5 5.4 5.6 5.6 5.7 5.9 6.0 6.0 5.7 5.7 5.8 5.8 5.8 5.8 5.9 6.2 6.3 6.2 6.2 6.3 6.4 6.4 6.2 6.0 5.9 5.9 5.9 5.9 5.9 5.8 5.7
5.3 5.5 5.4 5.2 5.0 5.0 5.2 5.4 5.5 5.5 5.4 5.5 5.4 5.4 5.4 5.6 5.8 5.8 5.8 5.8 5.9 5.9 5.8 5.8 5.8 5.8 5.8 5.8 6.1 6.3 6.4 6.2 6.2 6.3 6.3 6.3 6.2 6.1 6.0 6.0 6.0 5.9 5.8
5.4 5.3 5.5 5.0 5.0 5.0 5.1 5.3 5.5 5.5 5.5 5.5 5.5 5.6 5.4 5.5 5.6 5.8 5.8 5.8 6.0 5.8 5.8 5.9 5.9 5.9 5.9 6.0 6.0 6.1 6.2 6.2 6.1 6.1 6.1 6.1 6.2 6.4 6.4 6.4 6.3 6.2 6.1
5.4 5.2 5.2 5.0 5.1 5.1 5.2 5.3 5.4 5.4 5.6 5.5 5.5 5.7 5.6 5.7 5.7 5.7 5.6 5.5 5.8 5.9 5.8 5.7 5.8 6.0 5.9 5.9 6.0 6.1 6.2 6.2 6.2 6.2 6.1 6.1 6.1 6.2 6.3 6.4 6.4 6.3 6.1
5.6 5.4 5.3 5.3 5.3 5.3 5.3 5.5 5.5 5.5 5.7 5.6 5.5 5.5 5.7 5.6 5.7 5.7 5.5 5.5 5.5 5.7 5.8 5.9 5.8 6.0 6.0 6.1 6.1 6.1 6.1 6.1 6.2 6.2 6.2 6.3 6.3 6.3 6.4 6.4 6.5 6.5 6.4
5.5 5.5 5.3 5.3 5.5 5.6 5.5 5.6 5.6 5.7 5.8 5.7 5.7 5.5 5.6 5.6 5.5 5.7 5.6 5.5 5.2 5.9 6.0 6.0 5.9 5.9 6.1 6.0 6.1 6.1 6.1 6.2 6.2 6.2 6.3 6.4 6.6 6.6 6.7 6.7 6.6 6.6 6.5
5.6 5.6 5.7 5.5 5.6 5.9 5.9 5.9 5.9 5.7 5.7 5.7 5.9 5.8 5.7 5.7 5.6 5.7 5.7 5.6 5.8 5.8 6.0 6.0 6.1 6.0 6.0 6.1 6.2 6.4 6.3 6.2 6.3 6.3 6.4 6.4 6.3 6.4 6.6 6.6 6.5 6.5 6.5
5.7 5.7 5.8 6.0 6.0 6.0 6.0 6.0 6.0 5.9 5.9 5.9 5.9 6.0 5.9 5.8 5.8 5.8 5.8 5.9 5.8 5.7 5.8 5.7 5.5 6.0 5.9 6.0 6.2 6.2 6.0 6.1 6.2 6.4 6.4 6.4 6.1 6.1 6.3 6.4 6.4 6.4 6.3
6.1 6.0 5.9 5.8 6.1 6.1 6.1 6.2 6.2 6.1 6.1 6.1 6.1 6.0 6.1 6.0 5.9 6.0 5.8 5.9 6.0 5.9 5.4 5.5 5.7 5.6 5.9 5.9 6.0 6.0 6.1 6.1 6.2 6.4 6.4 6.4 6.0 6.2 6.2 6.2 6.3 6.2 6.2
6.4 6.3 6.2 6.2 6.2 6.0 6.1 6.1 6.2 6.1 6.1 6.1 6.1 6.0 5.9 5.8 5.7 5.8 5.9 5.9 5.9 5.9 5.9 4.9 4.7 5.8 6.0 6.0 6.0 6.1 5.9 6.0 6.1 6.2 6.3 6.2 6.2 6.3 6.3 6.3 6.1 6.2 6.1
6.9 6.9 6.6 6.7 6.5 6.2 6.0 5.9 6.1 6.2 6.2 6.1 6.1 6.0 5.9 5.9 5.9 5.9 6.1 6.0 6.1 6.1 6.2 6.1 5.9 5.7 6.0 5.8 5.9 5.9 5.8 5.8 5.8 5.9 6.0 6.1 6.2 6.2 6.2 6.2 6.3 5.7 5.5
6.5 6.7 6.7 6.6 6.4 6.2 6.2 6.3 6.2 6.3 6.2 6.2 6.1 6.2 6.1 6.1 6.0 6.0 6.1 6.0 6.1 6.1 6.1 6.1 5.9 5.7 5.7 5.8 5.9 5.9 5.8 5.8 5.9 5.9 6.0 6.0 6.1 6.1 6.2 6.3 6.3 5.8 5.9
6.3 6.4 6.5 6.5 6.5 6.4 6.4 6.4 6.5 6.4 6.4 6.2 6.1 6.1 5.9 5.9 6.0 5.8 5.9 5.8 5.8 5.8 5.8 5.8 5.9 5.8 5.7 5.7 5.8 5.8 5.9 5.9 5.9 5.6 5.5 5.9 5.9 6.0 6.1 6.1 6.1 6.1 5.9
6.5 6.3 6.5 6.5 6.6 6.6 6.5 6.4 6.4 6.3 6.2 6.2 6.2 6.2 6.1 5.7 5.7 5.7 5.7 5.7 5.6 5.6 5.6 5.6 5.7 5.8 5.8 5.9 5.9 5.8 5.7 5.7 5.8 5.6 5.6 5.6 5.6 5.7 5.9 6.0 5.9 6.1 6.1
6.4 6.6 6.6 6.7 6.6 6.5 6.5 6.4 6.4 6.2 6.1 6.1 5.9 5.8 5.7 5.8 5.9 5.9 6.0 6.0 6.1 6.1 6.0 6.0 6.0 6.1 6.3 6.2 6.1 6.2 6.2 6.1 6.1 6.0 5.8 6.0 5.9 5.9 5.9 6.0 5.9 6.0 5.9
6.3 6.2 6.3 6.5 6.6 6.6 6.5 6.4 6.3 6.3 6.2 6.0 6.0 6.0 5.9 6.2 6.2 6.2 6.3 6.0 6.0 6.2 6.2 6.3 6.3 6.2 6.0 6.1 6.1 6.1 6.1 6.1 6.2 6.3 6.1 6.3 6.2 6.2 6.2 6.1 6.1 6.2 6.3
6.3 6.3 6.4 6.5 6.6 6.6 6.6 6.4 6.3 6.2 6.2 6.2 6.2 6.2 6.2 6.3 6.5 6.3 6.3 6.4 6.3 6.2 6.1 6.1 6.2 6.3 6.1 6.2 6.1 6.0 6.0 6.0 6.2 6.2 6.0 6.2 6.2 6.2 6.1 6.0 6.1 6.2 6.1
6.4 6.2 6.4 6.6 6.7 6.8 6.7 6.5 6.3 6.2 6.2 6.2 6.2 6.1 6.0 6.2 6.0 6.1 6.0 5.9 5.8 5.8 5.9 6.1 5.9 5.8 5.8 5.6 5.6 5.8 5.7 5.4 5.7 5.6 5.3 4.2 5.3 5.5 5.6 5.8 5.4 5.3 6.4
6.5 6.4 6.4 6.6 6.7 6.6 6.6 6.6 6.4 6.3 6.2 6.1 6.2 6.2 6.1 6.1 6.1 6.1 6.0 6.1 6.1 6.1 6.0 6.0 6.2 5.9 5.8 5.7 5.4 5.3 5.6 5.7 5.6 5.5 5.1 4.5 5.6 5.4 5.4 5.5 4.7 4.8 5.1
Wind_Speed
6 7 6 6 8 12 10 9 7 6 3 8 10 6 8 10 12 10 10 15 11 10 8 10 6 6 8 9 10 11 10 11 11 11 10 10 9 9 9 9 7 6 5
7 7 6 9 7 8 11 8 3 4 5 3 9 12 12 11 13 14 14 17 17 18 12 13 13 9 9 11 12 13 12 12 12 12 11 10 9 10 9 9 8 8 8
9 10 7 6 5 8 8 9 6 4 2 5 8 9 9 10 12 13 13 15 21 21 18 15 15 13 12 13 13 13 14 13 13 13 12 11 10 11 10 10 9 11 10
11 10 6 5 5 7 8 5 4 3 3 2 5 5 6 7 10 11 14 15 17 18 21 18 15 13 13 14 15 16 15 14 14 14 14 14 12 11 12 12 12 11 13
13 8 8 7 6 6 5 6 1 3 2 2 4 4 4 4 6 10 12 12 10 15 15 24 22 17 17 17 16 17 17 16 17 16 13 16 15 14 13 13 13 13 13
11 11 8 8 8 6 6 5 4 3 3 4 4 1 3 4 4 5 6 10 13 14 15 10 19 20 19 19 19 18 18 18 18 17 15 14 16 16 16 15 15 15 15
12 10 8 8 9 6 5 6 6 4 5 1 3 1 4 3 5 5 6 8 8 15 15 15 14 17 20 21 19 17 18 19 19 20 18 17 17 18 19 19 19 18 17
8 9 7 5 8 6 6 7 5 4 4 1 2 2 2 3 6 6 6 6 8 10 11 14 18 16 13 17 22 24 20 19 21 22 21 20 19 19 19 20 20 20 20
7 9 7 5 5 7 7 7 7 5 4 1 3 1 2 2 4 4 6 7 7 6 9 12 15 17 18 17 14 23 27 25 22 23 24 23 22 21 21 21 21 22 22
7 8 8 11 8 7 6 7 6 6 5 3 3 3 4 4 1 2 4 5 6 7 7 8 12 16 18 18 19 18 17 29 26 24 24 24 23 24 24 25 24 24 24
10 8 9 8 9 8 7 8 7 7 5 3 3 2 3 3 4 2 1 3 7 7 8 8 10 12 16 17 18 20 25 19 25 26 27 27 27 27 27 27 27 26 26
6 8 10 9 8 7 7 8 7 8 7 5 3 4 2 2 2 3 3 5 6 7 7 7 9 11 14 16 18 14 22 26 26 24 26 27 28 29 29 29 28 28 28
4 6 9 10 8 8 8 8 8 8 8 8 7 4 5 5 2 3 4 0 4 3 5 7 8 12 13 14 15 21 20 22 26 28 28 28 28 28 29 29 29 29 28
4 6 8 9 9 8 8 8 8 8 8 8 9 8 4 5 4 4 5 1 2 2 3 6 6 6 10 12 11 14 16 24 27 28 29 29 28 27 27 27 28 29 29
2 6 7 8 8 9 9 9 8 9 8 9 9 9 7 5 7 5 5 5 4 5 3 4 4 5 5 7 6 11 15 16 25 28 29 30 30 29 28 28 28 28 28
3 4 7 7 8 8 9 9 8 8 10 9 8 8 7 7 9 6 6 6 6 6 5 7 5 3 2 5 6 8 11 8 17 22 25 28 29 29 28 28 28 28 29
3 1 3 6 5 7 9 9 9 8 10 10 10 8 9 10 8 7 7 7 7 7 7 6 5 5 5 7 8 9 10 11 14 26 27 26 27 28 28 28 28 29 29
2 1 1 4 5 6 6 6 7 6 8 9 9 10 11 9 11 9 8 9 8 8 8 9 8 6 7 8 9 9 10 16 15 11 23 23 24 27 29 29 29 29 30
3 3 3 3 3 2 3 4 5 5 6 6 7 9 9 8 9 7 8 8 8 7 7 8 10 6 8 8 8 10 10 11 15 17 16 22 25 26 28 29 29 30 31
3 3 2 2 2 3 3 3 2 3 3 1 2 3 5 7 7 7 7 8 7 7 7 6 7 7 6 8 6 7 8 6 8 14 14 12 14 20 25 26 28 28 30
4 3 2 2 0 1 7 8 4 4 5 5 4 4 5 6 6 5 3 0 2 4 4 4 6 6 7 6 7 5 7 8 8 9 8 9 7 10 16 28 23 29 30
3 3 4 4 1 5 8 8 8 4 3 4 5 4 5 6 4 3 2 2 4 6 8 8 9 9 9 9 8 8 9 9 10 9 9 10 9 10 11 17 11 5 15
3 3 2 2 4 6 10 9 9 4 5 4 4 5 7 5 3 8 3 6 9 7 7 8 10 10 11 10 10 10 10 10 10 10 10 12 10 12 10 18 19 21 17
3 3 2 2 4 7 12 11 10 3 2 3 4 5 6 5 10 10 11 9 8 8 8 7 7 8 8 10 9 10 11 12 12 12 12 12 10 11 12 15 13 13 15
4 5 5 4 4 6 10 12 11 4 3 3 2 3 5 5 7 7 7 8 8 9 7 6 5 8 14 16 10 8 10 11 12 11 10 10 11 11 11 11 15 17 20
4 6 6 6 3 5 10 11 10 6 4 5 4 3 11 8 7 6 7 8 8 8 7 8 10 10 17 14 21 11 9 10 11 12 10 6 10 9 9 9 10 7 5
Wind_Direction
224 230 235 217 229 232 236 240 276 249 283 232 251 230 227 208 195 210 208 174 178 210 180 210 212 204 206 195 187 186 191 184 188 188 181 180 189 182 179 183 184 186 188
243 252 238 247 220 225 227 252 251 271 221 209 236 227 212 218 194 215 194 187 178 230 215 211 215 214 211 210 206 196 201 197 200 197 195 198 203 199 198 199 203 212 220
235 249 245 246 233 215 247 251 266 283 94 242 230 235 218 215 204 201 196 203 193 215 218 215 214 220 216 216 208 208 206 204 203 203 203 213 213 205 216 221 229 231 235
238 251 250 248 208 222 232 244 244 276 201 272 264 236 197 202 208 201 195 207 193 202 209 220 220 219 225 224 218 216 211 211 212 212 211 212 222 229 234 238 243 249 248
238 223 248 221 216 230 225 248 229 249 278 266 248 211 205 194 208 196 196 194 197 202 207 196 212 218 223 226 222 223 219 216 218 218 226 219 219 225 234 242 252 258 259
220 226 239 231 218 221 229 224 237 211 153 224 217 172 266 195 205 195 199 190 198 201 209 192 205 214 217 227 227 224 225 224 225 227 226 220 224 230 234 237 243 255 267
219 218 216 214 221 227 237 212 217 244 257 149 289 74 255 174 178 213 216 182 207 196 196 192 214 212 201 211 227 224 228 232 226 227 229 225 224 229 234 237 240 244 251
213 220 222 222 223 216 206 218 235 249 253 64 109 194 228 177 206 171 197 206 201 190 212 202 194 214 225 198 214 220 230 234 236 229 225 229 231 232 235 239 238 243 246
195 217 226 215 241 236 197 207 216 238 258 30 295 273 211 239 148 175 187 214 182 191 206 205 210 205 215 228 223 208 215 223 229 234 231 227 230 235 236 240 244 246 248
205 208 201 213 211 225 214 194 208 241 249 164 253 220 228 309 71 222 209 220 214 211 215 200 206 213 213 222 226 239 211 212 218 225 232 235 235 235 236 237 239 242 246
218 203 224 213 211 226 192 223 194 211 204 243 230 230 223 285 240 229 260 196 218 208 210 219 209 211 207 218 228 225 230 227 220 222 227 232 237 240 239 240 241 241 242
215 207 220 210 215 215 227 204 217 209 233 241 220 232 184 218 243 215 240 176 224 177 211 213 231 213 214 213 226 240 211 222 228 228 229 234 238 241 244 245 246 243 241
216 225 207 210 218 212 211 218 204 224 214 231 225 225 242 235 241 262 265 274 222 163 201 205 206 228 225 224 233 213 218 222 229 234 236 236 237 240 244 246 248 249 250
221 218 213 224 215 216 217 211 217 224 219 227 231 246 223 253 211 234 245 261 266 356 193 253 189 213 227 232 243 204 238 222 229 234 239 242 243 244 244 245 246 248 250
283 209 214 214 222 215 218 216 226 207 228 217 227 227 229 227 254 221 234 255 271 212 201 209 239 189 199 205 226 244 234 233 225 232 237 241 243 243 243 244 244 245 246
253 246 221 211 214 214 216 220 231 208 218 225 223 220 233 209 241 231 235 234 239 269 279 167 227 193 204 268 210 240 259 240 219 230 239 242 243 243 243 243 244 244 245
206 205 218 227 216 218 218 212 216 225 215 225 244 215 219 243 237 228 229 242 248 239 253 260 198 216 237 259 275 258 248 242 239 224 233 241 246 246 246 245 244 244 243
97 98 136 191 196 225 232 233 238 246 229 228 229 243 228 220 232 246 247 243 262 248 248 249 269 262 217 249 265 270 269 269 265 227 215 230 240 246 246 246 245 245 243
73 70 61 31 41 77 207 217 252 254 255 253 254 244 246 241 249 262 250 250 249 249 250 256 267 271 274 267 267 249 253 257 265 262 226 235 239 242 244 246 246 248 247
119 109 84 71 56 65 56 46 49 34 359 15 283 264 261 267 268 270 268 263 265 264 262 261 273 285 298 299 281 284 282 284 293 298 299 274 248 242 242 245 247 247 247
124 126 123 88 44 315 29 352 343 335 333 325 339 340 81 46 60 42 312 342 300 262 256 262 263 262 266 272 269 262 266 273 269 256 270 281 277 250 237 238 241 235 240
106 101 114 115 82 67 14 6 342 322 316 300 304 311 299 185 162 140 79 329 323 274 272 281 278 275 288 279 281 292 292 296 294 296 290 281 291 295 290 283 301 310 236
118 106 97 104 81 70 25 15 350 324 318 344 311 311 305 71 327 324 207 230 236 219 244 278 275 279 292 286 294 289 281 294 286 301 298 285 294 289 285 282 266 257 265
151 138 126 117 118 65 32 19 346 320 345 342 337 332 333 359 43 356 326 308 297 294 266 270 286 305 315 344 321 303 303 286 272 258 249 259 269 264 269 271 256 225 234
159 145 118 125 116 83 37 21 347 304 3 313 323 337 340 90 32 358 310 303 302 293 276 209 246 273 283 285 273 286 276 281 285 285 285 276 276 283 287 300 294 215 220
160 126 146 123 74 112 54 28 360 312 305 304 270 162 74 41 13 339 299 287 284 286 303 307 294 257 238 240 227 235 271 272 279 285 289 311 292 293 281 251 255 332 279